User: anonymous   Login
Location: Unspecified
(0.0000°N, 0.0000°E)
Time: 20:01:58
(UTC+00:00)
Language:

OBJECT B - Orbit

View from above orbital plane
View from above orbital plane
View from above satellite
View from above satellite

Ground track
Ground track

The orbit is defined by the following mean orbital elements,

1 67477U          26145.45194478 +.00000000 +00000-0 +81459-4 0 00005
2 67477  44.9765 182.6743 0011843 230.2872 129.6918 13.99154202    02
Epoch (UTC): 25 May 2026 10:50:48
Eccentricity: 0.0011843
inclination: 44.9765°
perigee height: 888 km
apogee height: 905 km
right ascension of ascending node: 182.6743°
argument of perigee: 230.2872°
revolutions per day: 13.99154202
mean anomaly at epoch: 129.6918°

The dashed part of the orbit path shows where the satellite is in the earth's shadow,  

DLR